Location: *
(43.9900°N, 3.4811°E)
Time: 12:13:23
(UTC+00:00)

Cosmos 1908 Rocket - Pass Details

Date: 25 August 2019
Orbit: 605 x 633 km, 82.5° (Epoch: 16 September)

Event Time Altitude Azimuth Distance (km) Brightness Sun altitude
Exits shadow 20:18:14 11° 187° (S) 1,964 5.9 -17.6°
Maximum altitude 20:22:35 89° 276° (W) 638 3.5 -18.2°
Drops below altitude 10° 20:27:05 10° 8° (N) 2,017 6.5 -18.9°
Sets 20:29:19 0° 9° (N) 2,925 7.4 -19.2°
